Погода Грозный

Погода Грозный : погода сейчас, прогноз погоды и архив. Всё, что Вы хотите узнать о погоде Грозный!

Поиск расширенной информации на нашем сайте:

Другие новости

Новости СМИ2

Главная страница сайта

Новости сайта

02.10.2013

Напоминаем, что на нашем новом сайте вы можете получить высокодетализированные прогнозы погоды по пунктам России, СНГ и мира (включающие важные для авиации метеовеличины, такие как направление и скорость ветра, видимость, явления погоды, количество и форма облачности, нижняя и верхняя граница облачности), а также ознакомиться с разнообразными материалами по авиационной метеорологии и подборкой полезных ссылок на эту тему.

Сайт Метеоцентр.Азия посвящён разработке технологий оптимизации авиаметеорологического обслуживания, включая проектирование и перспективное создание нескольких автоматизированных авиаметеорологических систем:
- система выпуска высокодетальных прогностических карт явлений погоды для нижнего воздушного пространства по России и ближнему зарубежью;
- система верификации прогнозов TAF (выпускаемых синоптиками официальных АМСГ РФ и ближнего зарубежья) и AUTOTAF (выпускаемых сайтом Метеоцентр.Азия) - выявление ошибок, онлайн-сопоставление с фактической погодой METAR, автоматическое внесение коррективов в прогнозы при резком отклонении фактической погоды от прогноза, подсчёт оправдываемости прогнозов по элементам и в целом;
- система обработки, анализа и отображения авиаметеорологической информации для применения провайдерами метеорологической информации.

Рекомендуем: Наружные отопительные котлы - газовые котлы будерус.

Погода Грозный - сегодня

Время (UTC), дата Ветер
(°,м/с) 
Видим.   Явления Облачность Т
(°С)
Тd
(°С)
f(%) Тe
(°С)
Pmin
(гПа)
dP
(гПа)
Po
(мм)
O2
(г/м3)
Тmin Tmax R s Состояние
почвы
09 25.06.17 250 (З) 20000 м    4/0 средняя 
[Ac lent]
+27 +14.7 47 +36  1011.4  -0.2  737  267           
12 25.06.17 090 (В) 20000 м    8/0 средняя 
[Ac lent]
+28.1 +14.3 43 +36  1011.3  737  266           
15 25.06.17 270 (З) 20000 м    9/9 1000 м 
[Sc]
+25.9 +13.8 47 +33  1011.9  1.4  738  269    +28.6       
18 25.06.17 180 (Ю) 10 км    10/10 600 м 
[Sc diur, vesp]
+21.1 +17 77 +34  1016.6  3.1  740  273           
21 25.06.17 210 (ЮЗ) 10 км    10/10 600 м 
[Sc diur, vesp]
+19.7 +16.7 83 +33  1017.6  0.8  741  275           
00 26.06.17 тихо ()   10 км    10/10 600 м 
[Sc diur, vesp]
+18.8 +16.2 85 +30  1017.8  0.2  741  276           
03 26.06.17 100 (В) 20000 м    8/0 средняя 
[Ac cast]
+19.5 +16.9 85 +34  1017.9  0.1  741  275  +17.7         
06 26.06.17 090 (В) 20000 м    3/0 средняя 
[Ac lent]
+23.3 +15.4 61 +33  1016.7  -0.8  740  272           
09 26.06.17 060 (СВ) 20000 м    5/0 средняя 
[Ac und]
+26 +13 45 +32  1016  -0.7  740  270           
12 26.06.17 080 (В) 20000 м    ясно 
+26.5 +13.2 44 +33  1015.1  -0.6  739  269           
15 26.06.17 080 (В) 20000 м    ясно 
+24.7 +13.6 50 +31  1014.8  -0.4  739  270    +26.9       
18 26.06.17 120 (ЮВ) 20000 м    ясно 
+19.5 +12.3 63 +26  1015  -0.2  739  276           
21 26.06.17 090 (В) 10 км    ясно 
+15.5 +13.3 87 +23  1014.5  -1  738  279           
00 27.06.17 тихо ()   10 км    3/0 средняя 
[Ac lent]
+15.4 +14.8 96 +24  1013.1  -1.2  737  278           
03 27.06.17 230 (ЮЗ) 4000 м  дымка  10/10 300 м 
[St]
+16.4 +15.9 97 +29  1013.3  737  277  +14.4         
06 27.06.17 270 (З) 10 км    10/10 600 м 
[Sc]
+19 +16.9 88 +34  1013  0.1  737  274           
09 27.06.17 300 (СЗ) 20000 м    ясно 
+25.9 +17 58 +39  1010.8  -1.5  736  267           
12 27.06.17 020 (С) 20000 м    ясно 
+29 +17 48 +42  1008.5  -1.9  735  264           
15 27.06.17 070 (В) 20000 м    ясно 
+28.1 +18.5 56 +44  1008.2  -0.4  734  264    +30.1       
18 27.06.17 100 (В) 10 км    3/3 600 м 
[Sc]
+22.6 +18.5 78 +39  1011.1  2.4  736  270           
21 27.06.17 020 (С) 10 км    ясно 
+20.3 +18.6 90 +37  1010.2  -1.5  735  271           
00 28.06.17 тихо ()   10 км    3/0 средняя 
[Ac lent]
+19.1 +18.3 95 +35  1009.8  -0.3  735  272           
03 28.06.17 тихо ()   20000 м    8/0 средняя 
[Ac lent]
+21.7 +20.5 93 +42  1009.8  0.3  735  269  +18.2        сухая 
06 28.06.17 320 (СЗ) 20000 м    8/0 средняя 
[Ac cast]
+24.7 +19.9 75 +44  1009.7  0.3  735  267           
09 28.06.17 310 (СЗ) 20000 м    6/0 средняя 
[Ac lent]
+28.2 +19.4 59 +46  1009.5  735  264           
Время (UTC), дата Ветер
(°,м/с) 
Видим.   Явления Облачность Т
(°С)
Тd
(°С)
f(%) Тe
(°С)
Pmin
(гПа)
dP
(гПа)
Po
(мм)
O2
(г/м3)
Тmin Tmax R s Состояние
почвы

Для получения пояснительной информации подведите курсор к названию столбца.

ПОГОДА Грозный - архив

Всё, что Вы хотите узнать о погоде Грозный - удобно и подробно!

Выберите нужную дату (начиная с 1 января 2015* года) и нажмите кнопку "Найти".
Будут отображены архивные сводки погоды по пункту Грозный, начиная с указанной даты.


Отображать данные в формате CSV (для использования в таблицах Excel)


Внимание! Наш архив погоды предназначен исключительно для личного некоммерческого использования в познавательных целях. Если Вам необходимы официальные справки о состоянии погоды (для производственных, юридических, коммерческих и т.п. целей), обращайтесь в органы Росгидромета.

*Примечание: данная дата относится к архиву по метеостанциям СССР (Россия, СНГ, Балтия).
Архив по метеостанциям Зарубежной Европы и Азии (кроме Китая) хранится 10 дней, по другим регионам земного шара (Китай, Африка, Америка, Австралия, Океания) - 1 день.

Грозный - район местоположения метеостанции


Название, широта, долгота, высота метеостанции:
Грозный 43.3°ш. 45.7°д. 163 м над ур. моря [Российская Федерация]

Дополнительная информация

В oтличие oт бoльшинства пoгoдных сайтoв мы публикуем пoдрoбную метеoинфoрмацию в детальнoм прoфессиoнальнoм фoрмате.

Характеристики температуры и влажнoсти вoздуха измеряются на высoте 2 м в тени вдали oт зданий и деревьев.
Скoрoсть ветра измеряется на высoте 10 м (на урoвне рoста челoвека скoрoсть ветра ниже в 1.5-2 раза). Если метеoстанция нахoдится в гoрoде или в лесу, тo скoрoсть ветра занижена на 2-4 м/с пo сравнению с oткрытым местoм. Скoрoсть ветра над акватoриями крупных рек и oзёр, а также на вершинах хoлмoв на 2-5 м/с выше, чем в oбычных услoвиях.
Атмoсфернoе давление в разных тoчках местнoсти мoжет значительнo oтличаться oт давления на метеoстанции, в зависимoсти oт услoвий рельефа (при пoдъёме на 10 м давление пoнижается примернo на 1 мм рт.ст.).